Location: Krasnoyarskiy Pitomnik
(51.1333°N, 71.6167°E)
Time: 12:07:03
(UTC+00:00)

Transit 2A - Pass Details

Date: 13 April 2024
Orbit: 593 x 958 km, 66.7° (Epoch: 30 May)

Event Time Altitude Azimuth Distance (km) Brightness Sun altitude
Rises 02:10:57 0° 161° (SSE) 2,830 9.3 16.0°
Reaches altitude 10° 02:14:11 10° 135° (SE) 1,962 9.1 16.6°
Maximum altitude 02:16:18 13° 105° (ESE) 1,775 10.4 16.9°
Drops below altitude 10° 02:18:30 10° 76° (ENE) 2,031 9.8 17.2°
Sets 02:21:57 0° 51° (NE) 3,015 9.8 17.8°
